Regional Weather Roundup
Issued by NWS

Home | Current Version | Previous Version | Graphics & Text | Print | Product List | Glossary On
Versions: 1 2 3 4 5 6 7 8 9 10 11 12 13 14 15 16 17 18 19 20 21 22 23 24 25 26 27 28 29 30 31 32 33 34 35 36 37 38 39 40 41 42 43 44 45 46 47 48 49 50
000
ASUS43 KLOT 240503
RWRIL

ILLINOIS REGIONAL WEATHER ROUNDUP
NATIONAL WEATHER SERVICE CHICAGO/ROMEOVILLE IL
1200 AM CDT SUN JUL 24 2016

NOTE: "FAIR" INDICATES FEW OR NO CLOUDS BELOW 12,000 FEET WITH NO
SIGNIFICANT WEATHER AND/OR OBSTRUCTIONS TO VISIBILITY.

* THESE STATIONS ARE NOT UNDER NWS QUALITY CONTROL. THEY ALSO MAY NOT
  REPORT WEATHER SUCH AS PRECIPITATION OR FOG.

ILZ001-002-007-009-015-016-024-240600-
NORTHWEST ILLINOIS

CITY           SKY/WX    TMP DP  RH WIND       PRES   REMARKS
MOLINE         CLOUDY    78  71  79 SE10      29.90F HX  80
STERLING*      CLOUDY    72  71  97 SE5       29.93R
SAVANNA*       CLOUDY    71  70  96 S5        29.89F
$$

ILZ003-004-008-010-011-017-018-240600-
NORTH CENTRAL ILLINOIS

CITY           SKY/WX    TMP DP  RH WIND       PRES   REMARKS
ROCKFORD       CLOUDY    72  70  93 SE10      29.94S
FREEPORT*      CLOUDY    70  69  97 SE7       29.94R
ROCHELLE*      CLOUDY    72  71  97 SE9       29.95R
DE KALB*       LGT RAIN  71  70  97 SE8       29.96F
$$

ILZ005-006-012>014-019>023-240600-
NORTHEAST ILLINOIS

CITY           SKY/WX    TMP DP  RH WIND       PRES   REMARKS
CHICAGO-OHARE  TSTM      71  70  96 S8        29.99S
CHICAGO-MIDWAY TSTM      73  70  90 S7        30.00S
AURORA         LGT RAIN  73  71  93 E6        29.96F FOG
LANSING*       TSTM      70  69  96 SW6       30.04R
WAUKEGAN       LGT RAIN  71  68  90 S9        29.96F
DUPAGE AIRPORT LGT RAIN  71  68  90 E9        29.96F
WHEELING       LGT RAIN  71  69  93 S7        29.98S
MORRIS*        RAIN      71  69  95 SE3       29.94F
NORTHERLY ISL    N/A     70  68  93 SW3         N/A
$$

LMZ740>746-240600-
SOUTHERN LAKE MICHIGAN

STATION/POSITION SKY/WX   TEMP    WIND        PRES    VSBY  WAVE
                          AIR SEA DIR/SP/G                  HT/PER
                          (F)     (DEG/KT/KT) (MB)    (MI)  (FT/S)
SOUTHERN BUOY              72 73  180/ 12/ 16 1013.7          1/ 3
WILMETTE HARBOR            66 62  210/  6/  8   N/A           1/ 3
HARRISON CRIB              71     320/ 10/ 11   N/A
BURNHAM HARBOR             71     190/  8       N/A
CALUMET HARBOR             71     160/  5/  9 1015.6
BURNS HARBOR               76     270/ 16/ 25 1015.9R
MICHIGAN CITY              75     120/  3/  4   N/A
MICHIGAN CITY 6N           75 73  240/  6/ 16   N/A           2/ 5
ST. JOSEPH                 77 77  310/ 12/ 23 1014.4R         2/ 2
$$

ILZ025>027-034>036-040-047-049-050-058-095>099-240600-
WEST-CENTRAL ILLINOIS

CITY           SKY/WX    TMP DP  RH WIND       PRES   REMARKS
QUINCY         CLOUDY    82  76  81 SE6       29.92S HX  89
GALESBURG*     CLOUDY    79  77  92 E5        29.93S HX  83
MACOMB*        CLOUDY    80  77  91 S7        29.95S HX  87
JACKSONVILLE*  CLOUDY    80  76  86 SE6       29.94S HX  86
PITTSFIELD*    CLOUDY    80  77  91 SE3       29.94S HX  87
$$

ILZ028>032-037-038-041>044-048-051>054-059>061-240600-
CENTRAL ILLINOIS

CITY           SKY/WX    TMP DP  RH WIND       PRES   REMARKS
PONTIAC        CLOUDY    76  73  88 NE7       30.00R
BLOOMINGTON    CLOUDY    78  75  90 S8        29.99R HX  81
DECATUR        CLEAR     81  75  82 SE5       29.98R HX  87
PEORIA         PTCLDY    82  77  84 E3        29.94S HX  90
LACON*         CLOUDY    77  70  79 SE12      29.93F
LINCOLN*       CLOUDY    80  78  95 CALM      29.97R HX  86
SPRINGFIELD    CLOUDY    83  77  82 S8        29.95F HX  92
TAYLORVILLE    CLEAR     78  76  95 NE3       29.97S HX  80
$$

ILZ033-039-045-046-055>057-062-063-240600-
EAST-CENTRAL ILLINOIS

CITY           SKY/WX    TMP DP  RH WIND       PRES   REMARKS
CHAMPAIGN      CLOUDY    77  75  93 SE5       29.99R
MATTOON        CLEAR     80  74  81 S6        29.97R HX  85
PARIS*         PTCLDY    75  75 100 CALM      30.00R FOG
$$

ILZ079-100>102-240600-
SOUTHWEST ILLINOIS

CITY           SKY/WX    TMP DP  RH WIND       PRES   REMARKS
ALTON          CLEAR     76  74  93 SE5       29.96S
BELLEVILLE     CLEAR     80  79  99 CALM      29.93F HX  85
CAHOKIA*       CLEAR     80  75  84 S5        29.93F HX  85
SPARTA*        PTCLDY    80  76  87 CALM      29.96S HX  86
$$

ILZ064>066-069>071-074>076-080>082-084>086-088>090-092>094-240600-
SOUTH-CENTRAL ILLINOIS

CITY           SKY/WX    TMP DP  RH WIND       PRES   REMARKS
CARBONDALE     PTCLDY    79  76  90 CALM      29.95S HX  83
CAIRO*         PTCLDY    79  77  94 SE3       29.94F HX  83
EFFINGHAM*     CLEAR     77  77 100 CALM      29.99R FOG
MARION         CLEAR     81  79  94 CALM      29.97R HX  89
MT. VERNON     CLEAR     79  72  78 CALM      29.97R HX  82
CENTRALIA*     CLEAR     77  76  97 CALM      29.95F
SALEM*         CLEAR     80  76  85 CALM      29.96S HX  86
METROPOLIS*    CLOUDY    80  76  87 CALM      29.96F HX  84
$$

ILZ067-068-072-073-078-083-087-091-240600-
SOUTHEAST ILLINOIS

CITY           SKY/WX    TMP DP  RH WIND       PRES   REMARKS
LAWRENCEVILLE  CLEAR     78  77  96 CALM      29.97F FOG     HX  81
FLORA*         CLEAR     78  76  94 SE5       29.97R FOG     HX  80
FAIRFIELD*     CLEAR     77  76  97 CALM      29.95R FOG
HARRISBURG*    CLEAR     78  78  99 CALM      29.96S FOG     HX  80
ROBINSON*      CLEAR     76  75  99 CALM      29.98S FOG
CARMI*         CLEAR     77  77 100 CALM      29.95S FOG
$$

ABBREVIATIONS USED IN REMARKS
   TC - TEMPERATURE IN CELSIUS
  WCI - WIND CHILL INDEX
   HX - HEAT INDEX
  VSB - VISIBILITY
$$





USA.gov is the U.S. government's official web portal to all federal, state and local government web resources and services.